| time (UTC) | temp F | wind direction | speed MPH | gust MPH | rain 1hr in | rain 24hr in | rain mn in | humidity % | barometer mb |
| 20260504045619 | 47 | 286 | 4.0 | 7.0 | 0.00 | 0.00 | 0.00 | 63 | 1014.1 |
| 20260504045117 | 47 | 296 | 3.0 | 5.0 | 0.00 | 0.00 | 0.00 | 63 | 1014.0 |
| 20260504044619 | 47 | 320 | 4.0 | 6.0 | 0.00 | 0.00 | 0.00 | 63 | 1014.0 |
| 20260504044117 | 47 | 308 | 4.0 | 6.0 | 0.00 | 0.00 | 0.00 | 62 | 1014.0 |
| 20260504043617 | 47 | 306 | 3.0 | 5.0 | 0.00 | 0.00 | 0.00 | 62 | 1014.0 |
| 20260504043117 | 47 | 285 | 3.0 | 4.0 | 0.00 | 0.00 | 0.00 | 62 | 1014.1 |
| 20260504042617 | 47 | 329 | 3.0 | 8.0 | 0.00 | 0.00 | 0.00 | 62 | 1014.1 |
| 20260504042117 | 47 | 311 | 3.0 | 5.0 | 0.00 | 0.00 | 0.00 | 61 | 1014.0 |
| 20260504041618 | 47 | 308 | 2.0 | 3.0 | 0.00 | 0.00 | 0.00 | 61 | 1014.0 |
| 20260504041118 | 47 | 287 | 4.0 | 7.0 | 0.00 | 0.00 | 0.00 | 61 | 1014.0 |
| 20260504040617 | 47 | 288 | 3.0 | 4.0 | 0.00 | 0.00 | 0.00 | 61 | 1014.0 |
| 20260504040119 | 47 | 299 | 3.0 | 4.0 | 0.00 | 0.00 | 0.00 | 61 | 1014.0 |
| 20260504035617 | 47 | 295 | 4.0 | 5.0 | 0.00 | 0.00 | 0.00 | 61 | 1014.0 |
| 20260504035118 | 48 | 307 | 4.0 | 6.0 | 0.00 | 0.00 | 0.00 | 60 | 1014.0 |
| 20260504034618 | 48 | 309 | 2.0 | 4.0 | 0.00 | 0.00 | 0.00 | 60 | 1014.0 |
| 20260504034117 | 48 | 290 | 3.0 | 6.0 | 0.00 | 0.00 | 0.00 | 60 | 1014.0 |
| 20260504033617 | 48 | 287 | 4.0 | 6.0 | 0.00 | 0.00 | 0.00 | 60 | 1014.1 |
| 20260504033117 | 48 | 305 | 2.0 | 4.0 | 0.00 | 0.00 | 0.00 | 59 | 1014.0 |
| 20260504032617 | 48 | 289 | 4.0 | 5.0 | 0.00 | 0.00 | 0.00 | 59 | 1014.1 |
| 20260504032117 | 48 | 297 | 2.0 | 3.0 | 0.00 | 0.00 | 0.00 | 59 | 1014.0 |
| 20260504031620 | 48 | 309 | 2.0 | 4.0 | 0.00 | 0.00 | 0.00 | 60 | 1014.0 |
| 20260504031119 | 48 | 303 | 3.0 | 6.0 | 0.00 | 0.00 | 0.00 | 59 | 1014.0 |
| 20260504030617 | 48 | 284 | 3.0 | 4.0 | 0.00 | 0.00 | 0.00 | 59 | 1014.0 |
| 20260504030118 | 48 | 290 | 2.0 | 3.0 | 0.00 | 0.00 | 0.00 | 59 | 1014.0 |
| 20260504025617 | 48 | 309 | 2.0 | 3.0 | 0.00 | 0.00 | 0.00 | 59 | 1014.1 |
| 20260504025117 | 48 | 315 | 1.0 | 3.0 | 0.00 | 0.00 | 0.00 | 59 | 1014.0 |
| 20260504024618 | 48 | 292 | 2.0 | 2.0 | 0.00 | 0.00 | 0.00 | 58 | 1014.1 |
| 20260504024122 | 48 | 328 | 2.0 | 2.0 | 0.00 | 0.00 | 0.00 | 58 | 1014.1 |
| 20260504023617 | 48 | 290 | 2.0 | 4.0 | 0.00 | 0.00 | 0.00 | 58 | 1014.1 |
| 20260504023117 | 48 | 279 | 3.0 | 3.0 | 0.00 | 0.00 | 0.00 | 59 | 1014.1 |
| 20260504022617 | 48 | 290 | 3.0 | 5.0 | 0.00 | 0.00 | 0.00 | 59 | 1014.1 |
| 20260504022117 | 49 | 327 | 1.0 | 2.0 | 0.00 | 0.00 | 0.00 | 59 | 1014.0 |
| 20260504021618 | 49 | 304 | 3.0 | 5.0 | 0.00 | 0.00 | 0.00 | 58 | 1014.0 |
| 20260504021118 | 49 | 328 | 2.0 | 4.0 | 0.00 | 0.00 | 0.00 | 58 | 1014.1 |
| 20260504020617 | 49 | 310 | 3.0 | 4.0 | 0.00 | 0.00 | 0.00 | 58 | 1014.1 |
| 20260504020118 | 49 | 293 | 2.0 | 3.0 | 0.00 | 0.00 | 0.00 | 58 | 1014.0 |
| 20260504015617 | 49 | 271 | 2.0 | 4.0 | 0.00 | 0.00 | 0.00 | 57 | 1014.0 |
| 20260504015117 | 49 | 290 | 2.0 | 2.0 | 0.00 | 0.00 | 0.00 | 58 | 1014.0 |
| 20260504014617 | 49 | 302 | 2.0 | 3.0 | 0.00 | 0.00 | 0.00 | 58 | 1014.1 |
| 20260504014117 | 49 | 306 | 2.0 | 3.0 | 0.00 | 0.00 | 0.00 | 58 | 1014.1 |
| 20260504013617 | 49 | 292 | 2.0 | 4.0 | 0.00 | 0.00 | 0.00 | 58 | 1014.0 |
| 20260504013117 | 49 | 351 | 1.0 | 2.0 | 0.00 | 0.00 | 0.00 | 58 | 1014.0 |
| 20260504012617 | 49 | 347 | 0.0 | 1.0 | 0.00 | 0.00 | 0.00 | 57 | 1013.9 |
| 20260504012117 | 49 | 284 | 2.0 | 4.0 | 0.00 | 0.00 | 0.00 | 57 | 1013.9 |
| 20260504011618 | 49 | 293 | 2.0 | 3.0 | 0.00 | 0.00 | 0.00 | 57 | 1013.9 |
| 20260504011117 | 49 | 286 | 2.0 | 3.0 | 0.00 | 0.00 | 0.00 | 57 | 1013.6 |
| 20260504010617 | 49 | 322 | 3.0 | 4.0 | 0.00 | 0.00 | 0.00 | 57 | 1013.6 |
| 20260504010118 | 49 | 274 | 2.0 | 3.0 | 0.00 | 0.00 | 0.00 | 56 | 1013.6 |
| 20260504005618 | 49 | 326 | 1.0 | 2.0 | 0.00 | 0.00 | 0.00 | 56 | 1013.5 |
| 20260504005118 | 49 | 315 | 3.0 | 4.0 | 0.00 | 0.00 | 0.00 | 56 | 1013.4 |
| 20260504004617 | 49 | 320 | 1.0 | 1.0 | 0.00 | 0.00 | 0.00 | 55 | 1013.5 |
| 20260504004117 | 50 | 295 | 3.0 | 4.0 | 0.00 | 0.00 | 0.00 | 55 | 1013.4 |
| 20260504003618 | 50 | 294 | 0.0 | 1.0 | 0.00 | 0.00 | 0.00 | 55 | 1013.4 |
| 20260504003117 | 50 | 303 | 2.0 | 4.0 | 0.00 | 0.00 | 0.00 | 54 | 1013.4 |
| 20260504002618 | 50 | 281 | 2.0 | 3.0 | 0.00 | 0.00 | 0.00 | 55 | 1013.1 |
| 20260504002118 | 50 | 320 | 2.0 | 3.0 | 0.00 | 0.00 | 0.00 | 55 | 1013.3 |
| 20260504001622 | 50 | 299 | 2.0 | 2.0 | 0.00 | 0.00 | 0.00 | 54 | 1013.1 |
| 20260504001117 | 51 | 302 | 2.0 | 4.0 | 0.00 | 0.00 | 0.00 | 53 | 1013.1 |
| 20260504000618 | 51 | 303 | 2.0 | 3.0 | 0.00 | 0.00 | 0.00 | 53 | 1013.3 |
| 20260504000117 | 51 | 321 | 3.0 | 5.0 | 0.00 | 0.00 | 0.00 | 54 | 1013.1 |
| 20260503235617 | 51 | 290 | 2.0 | 4.0 | 0.00 | 0.00 | 0.00 | 53 | 1013.1 |
| 20260503235117 | 51 | 309 | 2.0 | 5.0 | 0.00 | 0.00 | 0.00 | 53 | 1013.1 |
| 20260503234130 | 51 | 316 | 4.0 | 5.0 | 0.00 | 0.00 | 0.00 | 52 | 1013.0 |
| 20260503233617 | 52 | 300 | 1.0 | 2.0 | 0.00 | 0.00 | 0.00 | 53 | 1013.0 |
| 20260503233118 | 52 | 337 | 2.0 | 4.0 | 0.00 | 0.00 | 0.00 | 53 | 1013.0 |
| 20260503232617 | 52 | 282 | 3.0 | 6.0 | 0.00 | 0.00 | 0.00 | 51 | 1012.9 |
| 20260503232118 | 53 | 323 | 2.0 | 5.0 | 0.00 | 0.00 | 0.00 | 52 | 1012.9 |
| 20260503231618 | 53 | 330 | 2.0 | 5.0 | 0.00 | 0.00 | 0.00 | 52 | 1013.0 |
| 20260503231117 | 53 | 278 | 2.0 | 3.0 | 0.00 | 0.00 | 0.00 | 51 | 1012.9 |
| 20260503230617 | 53 | 293 | 2.0 | 7.0 | 0.00 | 0.00 | 0.00 | 51 | 1012.9 |
| 20260503230119 | 53 | 307 | 2.0 | 4.0 | 0.00 | 0.00 | 0.00 | 49 | 1012.9 |
| 20260503225617 | 54 | 305 | 4.0 | 5.0 | 0.00 | 0.00 | 0.00 | 49 | 1012.9 |
| 20260503225118 | 53 | 311 | 2.0 | 4.0 | 0.00 | 0.00 | 0.00 | 49 | 1012.9 |
| 20260503224618 | 53 | 272 | 3.0 | 5.0 | 0.00 | 0.00 | 0.00 | 51 | 1012.9 |
| 20260503224118 | 52 | 298 | 3.0 | 5.0 | 0.00 | 0.00 | 0.00 | 51 | 1012.7 |
| 20260503223617 | 52 | 289 | 1.0 | 2.0 | 0.00 | 0.00 | 0.00 | 50 | 1012.8 |
| 20260503223118 | 53 | 288 | 5.0 | 7.0 | 0.00 | 0.00 | 0.00 | 49 | 1012.8 |
| 20260503222618 | 53 | 288 | 4.0 | 6.0 | 0.00 | 0.00 | 0.00 | 49 | 1012.8 |
| 20260503222117 | 53 | 305 | 2.0 | 8.0 | 0.00 | 0.00 | 0.00 | 49 | 1012.8 |
| 20260503221617 | 54 | 285 | 5.0 | 8.0 | 0.00 | 0.00 | 0.00 | 48 | 1012.8 |
| 20260503221118 | 54 | 296 | 4.0 | 6.0 | 0.00 | 0.00 | 0.00 | 47 | 1012.8 |
| 20260503220618 | 53 | 299 | 2.0 | 5.0 | 0.00 | 0.00 | 0.00 | 50 | 1012.9 |
| 20260503220117 | 53 | 282 | 4.0 | 6.0 | 0.00 | 0.00 | 0.00 | 49 | 1012.9 |
| 20260503215618 | 54 | 296 | 3.0 | 7.0 | 0.00 | 0.00 | 0.00 | 49 | 1012.9 |
| 20260503215118 | 55 | 309 | 3.0 | 6.0 | 0.00 | 0.00 | 0.00 | 48 | 1012.7 |
| 20260503214617 | 54 | 258 | 3.0 | 4.0 | 0.00 | 0.00 | 0.00 | 47 | 1012.9 |
| 20260503214117 | 53 | 259 | 3.0 | 5.0 | 0.00 | 0.00 | 0.00 | 50 | 1012.8 |
| 20260503213618 | 53 | 305 | 5.0 | 9.0 | 0.00 | 0.00 | 0.00 | 50 | 1012.7 |
| 20260503213117 | 54 | 289 | 3.0 | 5.0 | 0.00 | 0.00 | 0.00 | 49 | 1012.6 |
| 20260503212618 | 53 | 284 | 5.0 | 9.0 | 0.00 | 0.00 | 0.00 | 48 | 1012.7 |
| 20260503212118 | 53 | 270 | 3.0 | 4.0 | 0.00 | 0.00 | 0.00 | 49 | 1012.7 |
| 20260503211618 | 54 | 244 | 4.0 | 5.0 | 0.00 | 0.00 | 0.00 | 48 | 1012.6 |
| 20260503211118 | 54 | 315 | 3.0 | 5.0 | 0.00 | 0.00 | 0.00 | 48 | 1012.6 |
| 20260503210617 | 53 | 278 | 2.0 | 6.0 | 0.00 | 0.00 | 0.00 | 48 | 1012.7 |
| 20260503210119 | 53 | 311 | 4.0 | 7.0 | 0.00 | 0.00 | 0.00 | 48 | 1012.2 |
| 20260503205618 | 54 | 307 | 5.0 | 9.0 | 0.00 | 0.00 | 0.00 | 48 | 1012.5 |
| 20260503205117 | 54 | 255 | 3.0 | 4.0 | 0.00 | 0.00 | 0.00 | 48 | 1012.5 |
| 20260503204617 | 54 | 305 | 5.0 | 12.0 | 0.00 | 0.00 | 0.00 | 48 | 1012.6 |
| 20260503204118 | 54 | 271 | 2.0 | 6.0 | 0.00 | 0.00 | 0.00 | 48 | 1012.8 |
| 20260503203618 | 53 | 309 | 4.0 | 12.0 | 0.00 | 0.00 | 0.00 | 50 | 1012.5 |
| 20260503203118 | 53 | 267 | 3.0 | 6.0 | 0.00 | 0.00 | 0.00 | 49 | 1012.5 |
| 20260503202617 | 53 | 262 | 4.0 | 6.0 | 0.00 | 0.00 | 0.00 | 50 | 1012.6 |
| 20260503202117 | 53 | 296 | 4.0 | 5.0 | 0.00 | 0.00 | 0.00 | 50 | 1012.6 |
| 20260503201617 | 53 | 285 | 5.0 | 8.0 | 0.00 | 0.00 | 0.00 | 49 | 1012.7 |
| 20260503201118 | 54 | 305 | 4.0 | 9.0 | 0.00 | 0.00 | 0.00 | 48 | 1012.6 |
| 20260503200617 | 53 | 309 | 5.0 | 8.0 | 0.00 | 0.00 | 0.00 | 48 | 1012.8 |
| 20260503200118 | 53 | 315 | 6.0 | 9.0 | 0.00 | 0.00 | 0.00 | 49 | 1012.6 |
| 20260503195617 | 53 | 312 | 5.0 | 6.0 | 0.00 | 0.00 | 0.00 | 49 | 1012.8 |
| 20260503195117 | 53 | 319 | 5.0 | 8.0 | 0.00 | 0.00 | 0.00 | 50 | 1012.8 |
| 20260503194617 | 53 | 278 | 4.0 | 8.0 | 0.00 | 0.00 | 0.00 | 49 | 1012.8 |
| 20260503194117 | 53 | 324 | 4.0 | 6.0 | 0.00 | 0.00 | 0.00 | 50 | 1012.8 |
| 20260503193618 | 53 | 327 | 4.0 | 11.0 | 0.00 | 0.00 | 0.00 | 49 | 1013.0 |
| 20260503193118 | 53 | 339 | 2.0 | 3.0 | 0.00 | 0.00 | 0.00 | 50 | 1013.3 |
| 20260503192617 | 52 | 283 | 5.0 | 8.0 | 0.00 | 0.00 | 0.00 | 49 | 1012.9 |
| 20260503192117 | 51 | 299 | 6.0 | 9.0 | 0.00 | 0.00 | 0.00 | 49 | 1013.1 |
| 20260503191617 | 52 | 314 | 4.0 | 7.0 | 0.00 | 0.00 | 0.00 | 50 | 1013.1 |
| 20260503191117 | 53 | 328 | 6.0 | 11.0 | 0.00 | 0.00 | 0.00 | 48 | 1013.3 |
| 20260503190617 | 52 | 300 | 6.0 | 11.0 | 0.00 | 0.00 | 0.00 | 49 | 1013.3 |
| 20260503190117 | 52 | 308 | 3.0 | 5.0 | 0.00 | 0.00 | 0.00 | 49 | 1013.3 |
| 20260503185618 | 51 | 306 | 5.0 | 9.0 | 0.00 | 0.00 | 0.00 | 49 | 1013.4 |
| 20260503185118 | 51 | 311 | 5.0 | 11.0 | 0.00 | 0.00 | 0.00 | 50 | 1013.1 |
| 20260503184619 | 51 | 312 | 6.0 | 14.0 | 0.00 | 0.00 | 0.00 | 51 | 1013.1 |
| 20260503184118 | 52 | 335 | 6.0 | 11.0 | 0.00 | 0.00 | 0.00 | 49 | 1013.4 |
| 20260503183617 | 52 | 315 | 5.0 | 8.0 | 0.00 | 0.00 | 0.00 | 50 | 1013.5 |
| 20260503183119 | 52 | 308 | 4.0 | 6.0 | 0.00 | 0.00 | 0.00 | 49 | 1013.4 |
| 20260503182619 | 52 | 237 | 2.0 | 3.0 | 0.00 | 0.00 | 0.00 | 50 | 1013.4 |
| 20260503182117 | 52 | 244 | 2.0 | 4.0 | 0.00 | 0.00 | 0.00 | 49 | 1013.4 |
| 20260503181618 | 52 | 342 | 5.0 | 8.0 | 0.00 | 0.00 | 0.00 | 49 | 1013.4 |
| 20260503181117 | 51 | 274 | 4.0 | 8.0 | 0.00 | 0.00 | 0.00 | 48 | 1013.5 |
| 20260503180618 | 51 | 299 | 3.0 | 4.0 | 0.00 | 0.00 | 0.00 | 49 | 1013.6 |
| 20260503180118 | 50 | 332 | 4.0 | 7.0 | 0.00 | 0.00 | 0.00 | 50 | 1013.5 |
| 20260503175618 | 50 | 320 | 4.0 | 7.0 | 0.00 | 0.00 | 0.00 | 51 | 1013.6 |
| 20260503175118 | 50 | 316 | 4.0 | 6.0 | 0.00 | 0.00 | 0.00 | 52 | 1013.6 |
| 20260503174617 | 50 | 328 | 5.0 | 10.0 | 0.00 | 0.00 | 0.00 | 50 | 1013.7 |
| 20260503174118 | 50 | 325 | 4.0 | 7.0 | 0.00 | 0.00 | 0.00 | 50 | 1013.7 |
| 20260503173617 | 49 | 258 | 3.0 | 5.0 | 0.00 | 0.00 | 0.00 | 51 | 1013.8 |
| 20260503173118 | 49 | 340 | 3.0 | 5.0 | 0.00 | 0.00 | 0.00 | 51 | 1013.9 |
| 20260503172617 | 49 | 278 | 3.0 | 5.0 | 0.00 | 0.00 | 0.00 | 52 | 1013.8 |
| 20260503172117 | 49 | 285 | 5.0 | 8.0 | 0.00 | 0.00 | 0.00 | 51 | 1013.9 |
| 20260503171617 | 48 | 288 | 4.0 | 7.0 | 0.00 | 0.00 | 0.00 | 53 | 1013.8 |
| 20260503171117 | 48 | 328 | 4.0 | 6.0 | 0.00 | 0.00 | 0.00 | 52 | 1014.0 |
| 20260503170617 | 48 | 315 | 4.0 | 8.0 | 0.00 | 0.00 | 0.00 | 53 | 1014.0 |
| 20260503170118 | 49 | 341 | 3.0 | 4.0 | 0.00 | 0.00 | 0.00 | 53 | 1014.2 |
| 20260503160117 | 46 | 309 | 4.0 | 5.0 | 0.00 | 0.00 | 0.00 | 56 | 1014.5 |
| 20260503150618 | 44 | 347 | 3.0 | 6.0 | 0.00 | 0.00 | 0.00 | 59 | 1014.6 |
| 20260503150118 | 43 | 294 | 4.0 | 13.0 | 0.00 | 0.00 | 0.00 | 59 | 1014.5 |
| 20260503140117 | 40 | 307 | 4.0 | 7.0 | 0.00 | 0.00 | 0.00 | 68 | 1014.9 |
| 20260503131118 | 38 | 328 | 4.0 | 6.0 | 0.00 | 0.00 | 0.00 | 71 | 1014.8 |
| 20260503130618 | 37 | 322 | 6.0 | 8.0 | 0.00 | 0.00 | 0.00 | 73 | 1014.8 |
| 20260503130118 | 37 | 320 | 4.0 | 7.0 | 0.00 | 0.00 | 0.00 | 77 | 1014.9 |
| 20260503120117 | 35 | 302 | 3.0 | 6.0 | 0.00 | 0.00 | 0.00 | 86 | 1014.8 |
| 20260503110618 | 33 | 324 | 1.0 | 2.0 | 0.00 | 0.00 | 0.00 | 90 | 1014.5 |
| 20260503110118 | 32 | 317 | 4.0 | 6.0 | 0.00 | 0.00 | 0.00 | 91 | 1014.5 |
| 20260503100117 | 33 | 308 | 2.0 | 3.0 | 0.00 | 0.00 | 0.00 | 90 | 1013.9 |
| 20260503090117 | 33 | 309 | 4.0 | 6.0 | 0.00 | 0.00 | 0.00 | 87 | 1013.7 |
| 20260503081618 | 33 | 326 | 4.0 | 6.0 | 0.00 | 0.00 | 0.00 | 89 | 1013.5 |
| 20260503081118 | 33 | 334 | 5.0 | 9.0 | 0.00 | 0.00 | 0.00 | 88 | 1013.4 |
| 20260503080618 | 33 | 326 | 3.0 | 5.0 | 0.00 | 0.00 | 0.00 | 89 | 1013.4 |
| 20260503080117 | 33 | 327 | 4.0 | 8.0 | 0.00 | 0.00 | 0.00 | 91 | 1013.5 |
| 20260503072617 | 34 | 338 | 3.0 | 5.0 | 0.00 | 0.00 | 0.00 | 90 | 1013.3 |
| 20260503072118 | 34 | 335 | 3.0 | 7.0 | 0.00 | 0.00 | 0.00 | 90 | 1013.3 |
| 20260503071617 | 34 | 327 | 4.0 | 6.0 | 0.00 | 0.00 | 0.00 | 90 | 1013.1 |
| 20260503071117 | 34 | 337 | 3.0 | 8.0 | 0.00 | 0.00 | 0.00 | 90 | 1013.3 |
| 20260503070617 | 35 | 329 | 3.0 | 6.0 | 0.00 | 0.00 | 0.00 | 90 | 1013.3 |
| 20260503070118 | 35 | 320 | 4.0 | 6.0 | 0.00 | 0.00 | 0.00 | 89 | 1013.3 |
| 20260503060117 | 36 | 340 | 4.0 | 8.0 | 0.00 | 0.00 | 0.00 | 85 | 1013.4 |
| 20260503055117 | 36 | 342 | 2.0 | 2.0 | 0.00 | 0.00 | 0.00 | 84 | 1013.5 |
| 20260503054617 | 36 | 321 | 5.0 | 8.0 | 0.00 | 0.00 | 0.00 | 83 | 1013.5 |
| 20260503054117 | 36 | 322 | 4.0 | 6.0 | 0.00 | 0.00 | 0.00 | 84 | 1013.5 |
| 20260503053617 | 36 | 342 | 4.0 | 5.0 | 0.00 | 0.00 | 0.00 | 84 | 1013.6 |
| 20260503053117 | 36 | 326 | 3.0 | 4.0 | 0.00 | 0.00 | 0.00 | 84 | 1013.6 |
| 20260503052618 | 37 | 334 | 2.0 | 4.0 | 0.00 | 0.00 | 0.00 | 84 | 1013.7 |
| 20260503052117 | 37 | 351 | 2.0 | 4.0 | 0.00 | 0.00 | 0.00 | 84 | 1013.7 |
| 20260503051618 | 37 | 323 | 4.0 | 7.0 | 0.00 | 0.00 | 0.00 | 83 | 1013.7 |
| 20260503051117 | 37 | 343 | 4.0 | 7.0 | 0.00 | 0.00 | 0.00 | 82 | 1013.6 |
| 20260503050618 | 37 | 345 | 5.0 | 8.0 | 0.00 | 0.00 | 0.00 | 82 | 1013.8 |
| 20260503050120 | 37 | 343 | 4.0 | 7.0 | 0.00 | 0.00 | 0.00 | 82 | 1013.8 |